Weather in Shipitsyno

Russia / Novosibirsk Oblast     54°31′21″N   76°50′50″E
temp.,
°C
wind,
m/s
gust,
m/s
humid.,
%
clouds,
%
prec.,
mm/h
press.,
hPa
HPBL,
m
28 february, sun
sun2801:00−29sse449913 0.0 103550
04:00−28sse47980 0.0 103387
07:00−28se479537 0.0 1032114
10:00−25se61091100 0.0 1029239
13:00−21se6992100 0.0 1026274
16:00−17ese61095100 0.1 1024362
19:00−16ese51094100 0.3 1020358
22:00−13e51095100 0.1 1017263
1 march, mon
mon101:00−11e61095100 0.6 1012284
04:00−8e61095100 1.4 1008307
07:00−7ene61095100 2.6 1006276
10:00−7ene5896100 0.8 1005243
13:00−5ne4696100 2.6 1005219
16:00−6nne5695100 1.2 1006244
19:00−9n4795100 1.7 1008256
22:00−12n469593 0.3 1011157
2 march, tue
tue201:00−16nnw349684 0.3 101443
04:00−18nw239791 0.0 101622
07:00−20wnw2210090 0.1 101720
10:00−20w229976 0.0 101820
13:00−16sw239287 0.1 1018237
16:00−14ssw2391100 0.1 1017318
19:00−14s129699 0.2 101722
22:00−15s2296100 0.1 101627
3 march, wed
wed301:00−16ssw129795 0.3 101520
04:00−16sw119799 0.2 101520
07:00−16w119799 0.4 101620
10:00−16w229686 0.1 101677
13:00−14wsw349382 0.1 1018263
16:00−13sw359184 0.0 1019389
19:00−15ssw479689 0.0 1019143
22:00−17s489595 0.0 1019185
4 march, thu
thu401:00−16s5109488 0.0 1019219
04:00−15s5109397 0.0 1017249
07:00−15s6119192 0.0 1017240
10:00−14s61289100 0.0 1015274
13:00−10sse71291100 0.0 1013346
16:00−7s81492100 0.1 1011446
19:00−7s71492100 0.2 1009491
22:00−7sse61392100 0.1 1007351